Printer-friendly version

IAU Minor Planet Center

Minor Planet Center

MPEC 2000-W31: 2000 WG10

The following Minor Planet Electronic Circular may be linked-to from your own Web pages, but must not otherwise be redistributed electronically.


Read MPEC 2000-W30 Read MPEC 2000-W32


M.P.E.C. 2000-W31                                Issued 2000 Nov. 24, 21:16 UT

     The Minor Planet Electronic Circulars contain information on unusual
         minor planets and routine data on comets.  They are published
   on behalf of Commission 20 of the International Astronomical Union by the
          Minor Planet Center, Smithsonian Astrophysical Observatory,
                          Cambridge, MA 02138, U.S.A.

             Prepared using the Tamkin Foundation Computer Network

                              MPC@CFA.HARVARD.EDU
          URL http://cfa-www.harvard.edu/iau/mpc.html  ISSN 1523-6714

                                   2000 WG10

Observations:
     K00W10G* C2000 11 19.19055 01 48 31.37 +26 55 56.4          18.7        704
     K00W10G  C2000 11 19.20750 01 48 21.24 +26 58 12.9          19.1        704
     K00W10G  C2000 11 19.22200 01 48 12.69 +27 00 08.5          19.3        704
     K00W10G  C2000 11 19.23638 01 48 04.10 +27 02 03.4          19.1        704
     K00W10G  C2000 11 19.25075 01 47 55.50 +27 03 57.3          19.1        704
     K00W10G  C2000 11 20.13467 01 39 52.68 +29 05 02.0          18.4        704
     K00W10G  C2000 11 20.14938 01 39 43.09 +29 07 09.5          19.0        704
     K00W10G  C2000 11 20.16417 01 39 33.51 +29 09 16.8          18.2        704
     K00W10G  C2000 11 20.17947 01 39 23.49 +29 11 27.1          18.3        704
     K00W10G  C2000 11 21.13497 01 29 37.86 +31 28 52.0          18.7        704
     K00W10G  C2000 11 21.13549 01 29 37.45 +31 28 55.8          18.7        704
     K00W10G  C2000 11 21.15072 01 29 26.50 +31 31 12.0          18.5        704
     K00W10G  C2000 11 21.15124 01 29 26.07 +31 31 17.3          18.7        704
     K00W10G  C2000 11 21.15151 01 29 25.90 +31 31 18.8          18.6        704
     K00W10G  C2000 11 21.16613 01 29 15.32 +31 33 29.4          18.6        704
     K00W10G  C2000 11 21.16666 01 29 15.01 +31 33 34.5          18.9        704
     K00W10G  C2000 11 21.16692 01 29 14.74 +31 33 37.1          18.9        704
     K00W10G  C2000 11 21.18114 01 29 04.34 +31 35 43.4          18.5        704
     K00W10G  C2000 11 21.18166 01 29 04.08 +31 35 47.8          18.8        704
     K00W10G  C2000 11 21.18192 01 29 03.80 +31 35 50.4          18.3        704
     K00W10G  C2000 11 21.19694 01 28 52.85 +31 38 02.8          18.5        704
     K00W10G  C2000 11 22.74277 01 10 38.59 +35 31 00.8                      046
     K00W10G  C2000 11 22.74341 01 10 37.96 +35 31 06.9                      046
     K00W10G  C2000 11 22.74406 01 10 37.33 +35 31 13.0                      046
     K00W10G  C2000 11 22.74459 01 10 36.88 +35 31 17.0                      046
     K00W10G  C2000 11 22.74514 01 10 36.49 +35 31 20.8                      046
     K00W10G  C2000 11 22.74581 01 10 35.82 +35 31 30.0                      046
     K00W10G  C2000 11 23.14520 01 05 16.34 +36 34 33.9          18.7 R      853
     K00W10G  C2000 11 23.14607 01 05 15.58 +36 34 42.0          18.8 R      853
     K00W10G  C2000 11 23.16226 01 05 00.98 +36 37 15.2          19.2 R      853
     K00W10G  C2000 11 23.45448 01 01 02.88 +37 22 32.1                      345
     K00W10G  C2000 11 23.45895 01 00 58.76 +37 23 15.5                      345
     K00W10G  C2000 11 23.45969 01 00 58.04 +37 23 22.0                      345
     K00W10G  C2000 11 23.86567 00 55 01.85 +38 26 12.6                      557
     K00W10G  C2000 11 23.86622 00 55 01.35 +38 26 18.5                      557
     K00W10G  C2000 11 23.86676 00 55 00.85 +38 26 23.2                      557
     K00W10G  C2000 11 23.86730 00 55 00.23 +38 26 28.9                      557
     K00W10G  C2000 11 23.86839 00 54 59.21 +38 26 38.9                      557

Observer details:
046 Klet.  Observer M. Tichy.  0.57-m f/5.2 reflector + CCD.
345 Sobaeksan Optical Astronomy Observatory.  Observers J.-W. Lee, S.-L. Kim.
    0.61-m reflector + CCD.
557 Ondrejov.  Observer P. Kusnirak.  0.65-m f/3.6 reflector + CCD.
704 Lincoln Laboratory ETS, New Mexico.  Observers M. Blythe, F. Shelly,
    M. Bezpalko, M. Elowitz, R. Huber, L. Manguso.  Measurers J. Stuart,
    R. Sayer, J. B. Evans, H. Viggh.  1.0-m f/2.15 reflector + CCD.
853 Biosphere 2 Observatory.  Observer G. J. Garradd.  0.6-m f/8.1 reflector
    + CCD.

Orbital elements:
2000 WG10
Epoch 2000 Nov. 12.0 TT = JDT 2451860.5                 Williams
M 307.23977              (2000.0)            P               Q
n   0.78469048     Peri.   74.04645     -0.55107151     -0.83021332
a   1.1641362      Node    49.70140     +0.71724890     -0.52274090
e   0.2059078      Incl.    6.32775     +0.42646712     -0.19361767
P   1.26           H   24.4           G   0.15
From 38 observations 2000 Nov. 19-23.

Ephemeris:
2000 WG10                a,e,i = 1.16, 0.21, 6                   q = 0.9244
Date    TT    R. A. (2000) Decl.     Delta      r     Elong.  Phase     V
2000 11 22    01 19.76   +33 38.1    0.046    1.025   143.9    34.6    19.2
2000 11 23    01 07.18   +36 11.7    0.044    1.022   140.1    38.3    19.2
2000 11 24    00 53.11   +38 47.9    0.043    1.019   136.1    42.2    19.3
2000 11 25    00 37.39   +41 23.9    0.042    1.016   132.1    46.2    19.3
2000 11 26    00 19.86   +43 56.6    0.042    1.013   127.9    50.3    19.4
2000 11 27    00 00.42   +46 22.1    0.041    1.010   123.6    54.5    19.5
2000 11 28    23 39.03   +48 36.2    0.041    1.007   119.3    58.7    19.6
2000 11 29    23 15.79   +50 35.1    0.041    1.004   115.0    62.9    19.7
2000 11 30    22 50.93   +52 15.0    0.041    1.002   110.8    67.0    19.8
2000 12 01    22 24.87   +53 33.3    0.042    0.999   106.7    71.0    20.0
2000 12 02    21 58.18   +54 28.5    0.042    0.996   102.8    74.9    20.1
2000 12 03    21 31.53   +55 00.5    0.043    0.993    99.0    78.6    20.3
2000 12 04    21 05.56   +55 10.6    0.044    0.991    95.4    82.1    20.5
2000 12 05    20 40.85   +55 01.2    0.045    0.988    92.0    85.4    20.6
2000 12 06    20 17.78   +54 35.4    0.046    0.985    88.8    88.5    20.8
2000 12 07    19 56.58   +53 56.4    0.048    0.983    85.9    91.3    21.0
2000 12 08    19 37.33   +53 07.3    0.049    0.980    83.2    94.0    21.2
2000 12 09    19 19.98   +52 10.9    0.051    0.978    80.6    96.4    21.4
2000 12 10    19 04.43   +51 09.4    0.053    0.975    78.3    98.6    21.5
2000 12 11    18 50.51   +50 04.7    0.055    0.973    76.2   100.7    21.7
2000 12 12    18 38.08   +48 58.2    0.057    0.971    74.3   102.5    21.9

Gareth V. Williams           (C) Copyright 2000 MPC           M.P.E.C. 2000-W31

Read MPEC 2000-W30 Read MPEC 2000-W32


Our Web policy. Index to the CBAT/MPC/ICQ pages.


Valid HTML 4.01!